Location: Makakahi
(40.6833°S, 175.6000°E)
Time: 06:49:43
(UTC+00:00)

DMSP F15 (USA 147) - Pass Details

Date: 13 December 2024
Orbit: 827 x 842 km, 99.1° (Epoch: 18 January)

Event Time Altitude Azimuth Distance (km) Brightness Sun altitude
Rises 09:13:34 0° 184° (S) 3,436 9.3 -13.9°
Reaches altitude 10° 09:16:55 10° 205° (SSW) 2,494 8.9 -14.3°
Maximum altitude 09:19:59 15° 239° (WSW) 2,128 8.4 -14.7°
Drops below altitude 10° 09:23:03 10° 273° (W) 2,478 8.1 -15.0°
Sets 09:26:23 0° 295° (WNW) 3,403 8.5 -15.4°
